{"data":{"norad_id":68334,"intl_designator":"2026-059P","name":"STARLINK-37191","alt_names":[],"object_type":"PAYLOAD","status":"ACTIVE","operator":null,"country":"US","launch_date":"2026-03-22","launch_site_code":"AFETR","launch_vehicle":null,"mission":null,"orbit_class":"UNKNOWN","rcs_meters":null,"size_class":null,"mass_kg":null,"dimensions":null,"purposes":["comms"],"wikipedia_slug":null,"has_3d_model":false,"image_url":null,"decayed_at":null,"tle_current":{"epoch":"2026-09-20T04:51:45.828000Z","epoch_age_seconds":73329,"freshness":"FRESH","line1":"1 68334U 26059P   26263.20261375  .00022245  00000+0  66788-3 0  9993","line2":"2 68334  53.1573 162.8493 0001362  95.4472 264.6686 15.34384670 27981","mean_motion":15.3438467,"eccentricity":0.0001362,"inclination_deg":53.1573,"raan_deg":162.8493,"arg_perigee_deg":95.4472,"mean_anomaly_deg":264.6686,"bstar":0.00066788,"rev_number":2798,"period_min":93.848695712008,"perigee_km":461.81707593053,"apogee_km":463.6805332237,"semimajor_km":6840.8858045771,"source":"CELESTRAK","updated_at":"2026-09-20T09:00:43.886797Z"}}}